TimeEDT,TemperatureF,Dew PointF,Humidity,Sea Level PressureIn,VisibilityMPH,Wind Direction,Wind SpeedMPH,Gust SpeedMPH,PrecipitationIn,Events,Conditions,WindDirDegrees,DateUTC
12:56 AM,59.0,28.0,31,30.13,10.0,West,5.8,-,N/A,,Overcast,270,2013-04-03 04:56:00
1:56 AM,57.9,24.1,27,30.12,10.0,NNW,4.6,-,N/A,,Overcast,340,2013-04-03 05:56:00
2:56 AM,55.9,28.0,34,30.11,10.0,NNE,3.5,-,N/A,,Overcast,30,2013-04-03 06:56:00
3:56 AM,55.0,24.1,30,30.13,10.0,ENE,8.1,-,N/A,,Overcast,60,2013-04-03 07:56:00
4:56 AM,53.1,24.1,32,30.12,10.0,ENE,3.5,-,N/A,,Overcast,70,2013-04-03 08:56:00
5:56 AM,50.0,24.1,36,30.14,10.0,NE,5.8,-,N/A,,Partly Cloudy,40,2013-04-03 09:56:00
6:56 AM,48.0,24.1,39,30.17,10.0,NE,4.6,-,N/A,,Clear,50,2013-04-03 10:56:00
7:56 AM,48.9,26.1,41,30.22,10.0,NNE,5.8,-,N/A,,Mostly Cloudy,30,2013-04-03 11:56:00
8:56 AM,51.1,25.0,36,30.23,10.0,NE,8.1,-,N/A,,Clear,50,2013-04-03 12:56:00
9:56 AM,53.1,21.0,29,30.24,10.0,East,11.5,21.9,N/A,,Partly Cloudy,80,2013-04-03 13:56:00
10:56 AM,55.0,21.0,27,30.25,10.0,Variable,6.9,17.3,N/A,,Clear,0,2013-04-03 14:56:00
11:56 AM,57.0,21.9,26,30.25,10.0,NE,10.4,17.3,N/A,,Partly Cloudy,40,2013-04-03 15:56:00
12:56 PM,59.0,24.1,26,30.23,10.0,ENE,9.2,-,N/A,,Clear,70,2013-04-03 16:56:00
1:56 PM,59.0,24.1,26,30.20,7.0,East,8.1,-,N/A,,Partly Cloudy,100,2013-04-03 17:56:00
2:56 PM,59.0,25.0,27,30.20,10.0,East,8.1,-,N/A,,Clear,90,2013-04-03 18:56:00
3:56 PM,61.0,26.1,26,30.20,10.0,NE,4.6,-,N/A,,Clear,50,2013-04-03 19:56:00
4:56 PM,60.1,28.0,30,30.19,10.0,ENE,4.6,-,N/A,,Clear,70,2013-04-03 20:56:00
5:56 PM,59.0,28.0,31,30.17,10.0,East,4.6,-,N/A,,Clear,100,2013-04-03 21:56:00
6:56 PM,57.9,28.9,33,30.19,10.0,East,4.6,-,N/A,,Partly Cloudy,90,2013-04-03 22:56:00
7:56 PM,55.9,30.9,39,30.19,10.0,Calm,Calm,-,N/A,,Clear,0,2013-04-03 23:56:00
8:56 PM,55.9,32.0,40,30.21,10.0,ESE,3.5,-,N/A,,Overcast,110,2013-04-04 00:56:00
9:56 PM,54.0,35.1,49,30.25,10.0,Calm,Calm,-,N/A,,Overcast,0,2013-04-04 01:56:00
10:56 PM,52.0,39.0,61,30.24,10.0,Calm,Calm,-,0.00,,Overcast,0,2013-04-04 02:56:00
11:56 PM,53.1,34.0,48,30.24,10.0,Calm,Calm,-,N/A,,Overcast,0,2013-04-04 03:56:00